Regional Weather Roundup
Issued by NWS

Home | Current Version | Previous Version | Graphics & Text | Print | Product List | Glossary On
Versions: 1 2 3 4 5 6 7 8 9 10 11 12 13 14 15 16 17 18 19 20 21 22 23 24 25 26 27 28 29 30 31 32 33 34 35 36 37 38 39 40 41 42 43 44 45 46 47 48 49 50
000
ASUS45 KPSR 031810
RWRAZ

ARIZONA HOURLY REGIONAL WEATHER ROUNDUP
NATIONAL WEATHER SERVICE PHOENIX AZ
1100 AM MST FRI JUL 03 2015

NOTE: FAIR INDICATES FEW OR NO CLOUDS BELOW 12,000 FEET WITH NO
SIGNIFICANT WEATHER AND/OR OBSTRUCTIONS TO VISIBILITY.

AZZ001>003-036-031900-
NORTHWEST ARIZONA

CITY           SKY/WX    TMP DP  RH WIND       PRES   REMARKS
BULLHEAD CITY  MOSUNNY  102  54  19 S20G25    29.81F HX 100
KINGMAN        MOSUNNY   96  52  22 SW14G25   30.03S
6HR MIN TEMP:  70; 6HR MAX TEMP:  96;

$$

AZZ004>008-015-016-018-031900-
NORTH CENTRAL ARIZONA

CITY           SKY/WX    TMP DP  RH WIND       PRES   REMARKS
GRAND CANYON     N/A    N/A N/A N/A MISG        N/A
WILLIAMS       MOSUNNY   77  54  44 SW8       30.35S
PRESCOTT       PTSUNNY   83  55  38 SW8       30.17S
6HR MIN TEMP:  69; 6HR MAX TEMP:  83; 6HR PCP: TRACE;

FLAGSTAFF      PTSUNNY   72  54  53 SW8       30.30F
6HR MIN TEMP:  59; 6HR MAX TEMP:  73;

PAYSON         CLOUDY    79  54  41 VRB6G13   30.19F
PAGE           CLOUDY    86  51  29 VRB5      30.05S
6HR MIN TEMP:  76; 6HR MAX TEMP:  86;

$$

AZZ009>014-017-031900-
NORTHEAST ARIZONA

CITY           SKY/WX    TMP DP  RH WIND       PRES   REMARKS
WINSLOW        CLOUDY    90  54  29 SW18      30.11F
6HR MIN TEMP:  69; 6HR MAX TEMP:  90;

SAINT JOHNS    PTSUNNY   82  53  36 SW12      30.19S
6HR MIN TEMP:  68; 6HR MAX TEMP:  82;

WINDOW ROCK    MOSUNNY   78  52  40 S5        30.26
6HR MIN TEMP:  58; 6HR MAX TEMP:  81;

SHOW LOW       CLOUDY    72  52  49 S14       30.26F
$$

AZZ023-031900-
GREATER PHOENIX AREA

CITY           SKY/WX    TMP DP  RH WIND       PRES   REMARKS
PHOENIX        CLOUDY    90  63  40 NW5       29.88F
6HR MIN TEMP:  82; 6HR MAX TEMP:  90; 6HR PCP:  0.08;

BUCKEYE        CLOUDY    91  63  38 NE6       29.88F
GLENDALE       PTSUNNY   91  63  38 NW5       29.90F
LUKE AFB       CLOUDY    90  63  40 N6        29.87F
DEER VALLEY    CLOUDY    87  60  40 CALM      29.90F
6HR MIN TEMP:  79; 6HR MAX TEMP:  88; 6HR PCP: TRACE;

SCOTTSDALE     CLOUDY    89  62  40 N5        29.92F
6HR MIN TEMP:  80; 6HR MAX TEMP:  89; 6HR PCP:  0.01;

MESA-GATEWAY   CLOUDY    88  66  48 NW9       29.90F
CHANDLER       CLOUDY    88  66  48 MISG      29.89F
$$

AZZ027-028-031900-
SOUTHWEST MARICOPA COUNTY AND PINAL COUNTY

CITY           SKY/WX    TMP DP  RH WIND       PRES   REMARKS
CASA GRANDE    CLOUDY    84  64  51 E7        29.89F
6HR MIN TEMP:  81; 6HR MAX TEMP:  86;

GILA BEND      PTSUNNY   97  59  28 W5        29.83F
6HR MIN TEMP:  85; 6HR MAX TEMP:  98;

$$

AZZ503-504-507>509-031900-
SOUTHEAST ARIZONA

CITY           SKY/WX    TMP DP  RH WIND       PRES   REMARKS
TUCSON         CLOUDY    90  58  33 VRB5      29.99F
6HR MIN TEMP:  81; 6HR MAX TEMP:  90;

DAVIS-MONTHAN  CLOUDY    89  57  33 E5        29.98S
6HR MIN TEMP:  79; 6HR MAX TEMP:  89;

RYAN FIELD     SUNNY     91  59  33 MISG      29.98R
NOGALES        PTSUNNY   83  60  45 SW5       30.06F
6HR MIN TEMP:  73; 6HR MAX TEMP:  83;

SIERRA VISTA   PTSUNNY   80  56  43 VRB5      30.14S
6HR MIN TEMP:  70; 6HR MAX TEMP:  80;

DOUGLAS        SUNNY     84  57  39 MISG      30.09F
6HR MIN TEMP:  66; 6HR MAX TEMP:  85;

SAFFORD        MOSUNNY   82  65  56 N6        30.03F
6HR MIN TEMP:  70; 6HR MAX TEMP:  83; 6HR PCP:  0.03;

$$

AZZ020-021-025-026-031-031900-
SOUTHWEST ARIZONA

CITY           SKY/WX    TMP DP  RH WIND       PRES   REMARKS
YUMA           MOSUNNY  101  54  20 W8        29.82S
6HR MIN TEMP:  81; 6HR MAX TEMP: 101;

$$

CAZ031-033-041-043-047-048-061-031900-
SOUTHERN CALIFORNIA

CITY           SKY/WX    TMP DP  RH WIND       PRES   REMARKS
DOWNTOWN L.A.  SUNNY     77  62  59 CALM      29.96F
6HR MIN TEMP:  64; 6HR MAX TEMP:  77;

L.A. AIRPORT   PTSUNNY   67  62  84 W8        29.98F
6HR MIN TEMP:  63; 6HR MAX TEMP:  68;

SAN DIEGO      MOSUNNY   74  60  61 W8        29.98F
6HR MIN TEMP:  68; 6HR MAX TEMP:  74;

BURBANK        SUNNY     79  58  48 SE7       29.96F
6HR MIN TEMP:  65; 6HR MAX TEMP:  79;

ONTARIO        MOSUNNY   81  54  39 SW9       29.96F
6HR MIN TEMP:  66; 6HR MAX TEMP:  81;

RIVERSIDE      MOSUNNY   81  57  43 W7        29.95F
6HR MIN TEMP:  67; 6HR MAX TEMP:  82;

PALM SPRINGS   MOSUNNY  102  53  19 CALM      29.84S HX 100
6HR MIN TEMP:  83; 6HR MAX TEMP: 102;

EL CENTRO NAS  MOSUNNY  103  45  14 NW8       29.80F
6HR MIN TEMP:  79; 6HR MAX TEMP: 103; 6HR PCP: TRACE;

IMPERIAL       MOSUNNY  101  50  18 VRB3      29.78F
6HR MIN TEMP:  78; 6HR MAX TEMP: 101;

BLYTHE         PTSUNNY   97  61  30 E6        29.82S
6HR MIN TEMP:  84; 6HR MAX TEMP:  97;

NEEDLES        PTSUNNY  103  52  18 MISG      29.83F HX 100
6HR MIN TEMP:  88; 6HR MAX TEMP: 105;

$$

NVZ020-UTZ003-031900-
SOUTHERN NEVADA-UTAH

CITY           SKY/WX    TMP DP  RH WIND       PRES   REMARKS
LAS VEGAS      PTSUNNY  100  51  19 S9        29.86S
6HR MIN TEMP:  88; 6HR MAX TEMP: 100;

SALT LAKE CITY MOSUNNY   93  45  19 CALM      30.02S
6HR MIN TEMP:  74; 6HR MAX TEMP:  93;

$$

NMZ009-TXZ055-031900-
NEW MEXICO-WEST TEXAS

CITY           SKY/WX    TMP DP  RH WIND       PRES   REMARKS
ALBUQUERQUE    PTSUNNY   81  57  43 CALM      30.20F
6HR MIN TEMP:  69; 6HR MAX TEMP:  81;

EL PASO        PTSUNNY   88  56  33 N14G21    30.06S
6HR MIN TEMP:  74; 6HR MAX TEMP:  88;

$$


........................KEY........................
SKY/WX - SKY CONDITION/WEATHER
TMP    - TEMPERATURE IN FAHRENHEIT
DP     - DEW POINT IN FAHRENHEIT
RH     - RELATIVE HUMIDITY IN PERCENT
WIND   - DIRECTION AND SPEED IN MILES PER HOUR (MPH)
VRB    - VARIABLE WIND DIRECTION
PRES   - MEAN SEA LEVEL PRESSURE IN INCHES OF MERCURY
         F - FALLING PRESSURE   R - RISING PRESSURE
         S - STEADY PRESSURE
VSB    - VISIBILITY IN MILES
HX     - HEAT INDEX IN FAHRENHEIT
WCI    - WIND CHILL INDEX IN FAHRENHEIT
TC     - TEMPERATURE IN CELSIUS WHICH IS ALSO KNOWN AS
         TEMPERATURE IN CENTIGRADE
AFB    - AIR FORCE BASE
         LUKE AFB IS LUKE AIR FORCE BASE
         DAVIS-MONTHAN IS DAVIS-MONTHAN AIR FORCE BASE
NAS    - NAVAL AIR STATION
         EL CENTRO NAS IS EL CENTRO NAVAL AIR STATION
N/A    - NOT AVAILABLE




USA.gov is the U.S. government's official web portal to all federal, state and local government web resources and services.